Temperature
27 27 27 28 29 30 30 30 30 30 31 31 30 29 29 29 29 29 28 27 26 25 24 23 23 22 21 21 20 19 19 18 18 18 18 18 17 17 17 17 17 17 17 17
28 27 29 30 30 30 30 29 30 30 31 30 29 29 29 29 29 28 28 27 26 25 24 23 23 22 21 20 20 19 19 18 18 18 18 18 17 17 17 17 17 17 16 16
28 29 30 30 30 29 29 29 29 30 31 30 29 28 28 29 29 28 28 27 26 25 24 23 23 22 21 20 19 19 18 18 18 18 17 17 17 17 17 17 17 16 16 16
29 30 30 30 29 29 29 30 30 30 29 29 29 27 27 28 28 28 27 26 26 25 24 23 22 22 21 20 19 19 18 18 18 17 17 17 17 17 17 16 16 16 16 16
28 30 30 29 30 30 29 31 30 30 29 28 29 28 27 28 27 27 27 26 25 25 24 24 23 22 21 20 19 19 18 18 17 17 17 17 17 16 16 16 16 16 16 16
29 30 30 30 30 30 30 30 29 29 28 26 28 28 27 27 27 27 26 26 25 24 24 23 23 22 21 20 19 18 18 18 17 17 17 17 16 16 16 16 16 16 16 16
28 29 30 30 29 29 29 28 26 26 26 26 28 28 27 28 28 27 26 25 24 24 23 23 22 21 21 20 19 18 18 17 17 17 16 16 16 16 16 16 16 16 15 15
26 27 28 29 29 28 28 28 26 25 26 27 27 26 27 28 27 26 25 24 24 23 23 22 22 21 20 19 19 18 18 17 17 16 16 16 16 16 16 16 15 15 15 15
26 26 29 29 29 29 27 28 28 27 27 26 27 26 26 26 26 25 24 24 23 23 22 21 21 21 20 19 18 18 18 17 17 16 16 16 16 15 15 15 15 15 15 15
26 25 27 28 29 28 28 28 27 26 25 25 26 26 25 25 24 24 24 23 22 22 21 20 20 20 19 18 18 18 17 17 17 16 16 16 15 15 15 15 15 15 15 14
26 25 26 27 27 27 27 27 26 26 26 25 24 24 25 24 24 23 23 22 22 21 20 20 19 19 18 18 17 17 17 17 16 16 16 15 15 15 15 15 14 14 14 14
25 25 24 26 28 28 28 27 26 25 25 25 24 23 25 24 24 23 22 22 21 20 20 19 18 18 17 17 17 17 17 16 16 16 15 15 15 15 15 14 14 14 14 14
24 23 23 24 26 26 26 27 27 26 25 24 24 23 24 23 23 22 21 21 20 19 19 18 18 17 17 16 16 16 16 16 16 16 15 15 15 15 14 14 14 14 14 14
23 23 22 22 24 25 25 25 26 25 24 24 24 23 22 22 22 22 21 20 20 19 18 17 17 16 16 16 15 15 16 15 15 15 15 15 14 15 14 14 14 14 14 14
23 23 23 23 24 25 24 24 25 25 24 24 24 23 22 22 22 21 20 19 19 18 17 17 16 16 15 15 15 15 15 15 15 15 15 14 14 14 14 14 14 14 13 13
22 21 22 22 23 24 24 24 25 24 24 24 23 22 22 22 21 20 19 19 18 18 17 17 16 15 15 15 14 14 14 14 14 14 14 14 14 14 14 14 14 14 13 13
22 21 21 21 23 23 23 23 24 23 23 23 22 21 21 21 21 20 19 18 18 17 17 16 15 15 14 14 14 14 14 14 14 14 14 14 14 14 14 14 14 13 13 13
21 20 20 20 21 21 22 24 24 23 22 22 22 21 21 20 20 19 19 18 17 17 16 16 15 14 14 14 14 14 14 14 14 14 14 14 14 14 14 14 14 13 13 13
21 20 20 20 20 20 21 22 22 21 21 21 21 21 20 19 19 19 18 17 17 16 16 15 15 14 14 14 13 13 13 13 13 14 13 14 14 14 13 13 13 13 13 13
22 21 20 20 19 19 20 21 22 21 20 20 20 20 19 19 19 19 18 17 16 15 15 15 14 14 14 13 13 13 13 13 13 13 13 13 13 13 13 13 13 13 13 13
20 19 19 19 18 18 19 20 21 19 18 19 19 19 19 18 18 17 17 16 16 15 14 14 14 13 13 13 13 13 13 13 13 13 13 13 13 13 13 13 13 13 13 13
19 19 18 18 18 17 19 19 19 18 18 18 18 18 18 17 17 16 16 15 15 15 14 14 13 13 13 13 12 12 12 12 12 12 12 12 13 13 13 13 13 13 13 13
19 18 18 17 17 17 17 17 17 17 17 17 17 17 17 16 16 15 15 15 14 14 13 13 13 13 12 12 12 12 12 12 12 12 12 12 12 12 13 13 13 13 13 13
18 19 18 17 17 17 17 17 16 17 17 17 17 17 16 16 16 15 14 14 14 13 13 13 13 12 12 12 12 12 12 12 12 12 12 12 12 12 12 13 13 13 13 13
17 17 17 17 17 17 16 16 16 16 16 16 16 16 16 15 15 14 14 13 13 13 13 12 12 12 12 12 12 12 12 12 11 12 12 12 12 12 12 12 12 12 12 12
16 16 16 16 16 16 16 16 16 16 16 16 16 16 15 15 14 14 13 13 12 12 12 12 12 12 12 12 12 12 12 12 12 12 12 12 12 12 12 12 12 12 12 12
Wind_Speed
14 14 15 16 17 16 14 12 11 9 8 9 9 9 8 7 8 8 8 9 10 9 9 8 9 9 11 10 9 8 6 5 4 3 3 2 2 2 2 2 4 2 1 1
14 18 18 16 15 15 14 13 12 9 9 9 9 9 9 9 9 9 9 9 8 8 9 9 9 8 9 10 9 8 7 6 4 3 2 2 2 2 2 2 4 3 2 1
18 14 15 16 14 12 14 13 13 11 8 8 9 10 10 10 10 9 8 8 8 8 9 10 10 9 9 9 9 8 6 5 4 3 2 2 1 1 2 2 2 2 2 1
16 15 13 13 14 13 14 13 13 12 10 10 11 10 10 9 10 9 9 9 9 8 9 9 10 10 10 10 9 8 6 5 4 3 3 2 2 2 2 1 2 2 1 1
14 14 13 14 13 13 13 12 12 12 13 13 13 12 9 8 8 8 7 7 7 7 8 8 10 9 9 10 10 9 7 6 5 4 3 2 1 1 1 1 1 1 1 1
15 14 13 13 13 12 12 12 12 13 13 15 15 14 9 8 8 7 7 6 6 6 5 6 7 9 7 8 9 9 8 6 5 5 4 3 2 1 1 1 1 1 1 1
16 15 13 12 13 12 13 12 9 11 12 14 12 10 5 5 7 7 7 8 7 6 5 6 6 8 8 7 8 8 8 7 6 4 4 3 2 2 2 1 1 0 1 1
13 13 14 12 13 11 12 14 12 10 10 10 9 8 4 5 6 6 6 7 7 5 4 5 6 7 7 7 7 7 8 6 5 4 4 3 2 2 1 1 1 1 1 2
10 10 10 11 11 13 12 13 14 14 15 12 7 5 4 5 6 6 5 6 7 6 5 4 5 5 6 6 5 6 6 6 5 4 3 3 3 2 2 2 2 2 2 2
9 10 10 10 10 13 13 12 9 11 10 10 7 6 5 8 7 6 5 5 6 6 6 5 3 4 5 5 5 5 5 5 5 4 3 3 3 2 2 1 2 2 2 2
9 9 10 10 12 13 13 14 11 10 10 9 8 3 2 7 7 7 6 5 6 6 5 5 4 4 5 5 4 4 5 4 3 3 3 2 2 2 1 1 1 1 2 1
7 6 10 13 12 11 12 13 12 9 10 10 8 2 3 6 7 6 5 5 6 5 5 5 4 4 4 5 4 3 4 4 3 2 2 2 2 2 2 2 2 2 2 1
4 5 8 10 9 10 12 12 12 11 9 10 10 3 5 6 6 6 6 5 5 4 3 4 4 3 3 4 3 2 3 2 3 2 2 2 2 2 2 2 2 2 2 1
5 7 9 11 9 9 11 12 12 11 9 10 10 5 4 5 5 5 5 5 6 4 4 4 4 2 2 3 2 2 2 1 1 1 2 2 2 2 2 2 2 2 2 2
5 9 12 14 13 12 10 12 13 12 11 10 8 6 4 4 4 5 5 5 5 5 5 4 4 3 2 2 2 1 1 0 0 1 1 2 2 2 2 3 2 2 2 2
5 8 11 13 13 12 12 12 12 10 9 8 7 4 2 3 3 4 4 5 5 4 4 4 4 2 2 2 1 1 0 0 0 1 1 1 1 2 2 2 2 2 2 2
6 7 10 12 13 11 11 9 9 7 5 6 6 4 2 2 2 4 4 3 4 4 3 3 3 3 2 2 1 1 1 1 1 1 1 2 2 2 2 2 2 2 2 2
7 8 6 9 10 12 5 2 2 3 3 2 1 2 1 1 2 3 4 3 3 3 2 2 3 3 2 2 2 1 1 1 1 2 2 2 2 2 2 2 2 2 1 1
7 8 7 7 9 8 4 3 3 4 3 3 2 2 0 2 1 3 2 2 3 3 2 2 2 2 2 2 2 1 1 2 2 2 2 2 2 2 2 2 2 1 2 2
7 6 7 7 9 7 3 5 4 4 3 3 3 1 2 2 3 3 1 3 4 3 3 3 2 2 2 2 1 2 2 2 2 3 2 2 2 2 3 2 2 2 2 3
6 7 9 10 9 4 5 6 4 3 2 3 2 1 1 1 2 1 2 2 3 4 3 3 3 3 2 2 2 2 2 2 3 3 3 2 2 2 2 2 2 3 3 3
5 5 6 7 7 5 5 3 2 2 3 3 3 2 2 2 2 2 3 3 3 3 3 2 2 2 2 3 3 3 2 2 3 3 3 2 3 3 2 2 3 4 4 4
4 3 2 2 2 1 5 4 3 3 3 4 2 2 1 1 0 2 2 2 2 2 1 1 1 2 2 3 3 3 2 2 2 2 3 3 3 2 2 3 4 4 4 4
2 2 3 2 2 2 4 6 6 6 5 5 4 2 2 3 2 2 2 2 1 1 1 1 1 3 3 3 3 2 2 2 2 3 3 3 3 2 2 3 3 2 2 3
5 4 4 4 3 3 3 5 6 6 7 5 4 2 1 1 1 2 1 1 1 0 1 1 2 2 2 2 2 2 2 2 3 4 3 4 4 3 2 2 2 2 2 2
4 4 4 4 4 5 5 5 6 6 6 5 4 2 1 1 1 2 1 1 1 1 1 1 1 1 1 2 2 2 3 3 3 4 4 4 4 3 3 2 1 2 1 1
Wind_Direction
214 222 229 229 230 242 255 258 255 243 221 225 230 227 231 234 218 212 203 193 191 182 173 163 160 161 152 148 145 144 146 141 145 155 173 174 165 157 132 114 98 109 118 123
219 226 233 239 240 245 253 258 258 241 227 232 239 236 230 228 229 215 209 198 190 179 171 162 162 158 151 148 148 147 150 151 156 163 178 173 170 176 150 119 112 115 118 141
225 230 226 232 238 243 250 252 257 255 238 235 248 249 237 216 219 210 203 193 190 190 179 168 170 164 152 149 150 154 152 152 162 167 154 145 138 145 117 121 126 124 131 149
235 240 237 235 239 242 248 248 254 258 253 252 243 252 241 210 197 195 199 194 189 192 179 175 172 169 161 156 150 143 146 144 151 155 159 173 166 169 142 133 139 143 140 153
240 243 241 241 242 245 253 256 258 261 258 265 257 256 236 205 205 193 190 186 179 179 176 171 166 164 161 154 152 150 148 147 152 157 155 165 156 154 110 110 123 145 150 125
250 248 245 246 247 245 252 254 254 255 256 253 254 256 236 201 195 181 170 163 160 165 159 155 151 147 151 151 151 150 148 151 159 166 163 160 159 151 131 162 156 198 194 163
242 245 239 237 242 236 237 241 242 242 239 246 247 247 236 185 165 166 166 162 158 151 151 151 152 150 149 146 145 146 148 155 161 165 163 160 177 164 151 202 186 222 267 222
239 237 230 226 236 237 233 236 238 251 254 255 242 231 206 132 119 122 135 144 137 136 142 150 150 148 147 144 144 143 147 149 157 164 167 170 181 187 182 195 228 219 253 246
254 248 229 222 231 241 238 240 248 258 269 270 248 201 144 130 128 122 131 143 139 135 124 127 129 132 133 139 138 141 145 153 156 162 162 172 186 198 204 198 212 237 247 249
264 262 239 225 224 232 239 245 254 254 262 265 254 228 195 168 143 135 135 139 135 131 126 122 119 120 119 118 131 136 138 148 151 158 178 181 194 205 201 202 210 235 257 276
266 263 254 236 229 231 232 237 241 254 262 264 256 253 127 143 139 142 148 151 138 134 134 134 124 121 124 126 129 130 134 133 144 167 174 170 176 198 198 199 224 236 253 266
253 261 260 255 242 243 241 241 236 243 256 269 270 250 86 111 123 128 135 132 123 121 132 128 118 120 131 122 117 130 139 143 152 159 162 169 169 184 209 212 224 227 236 244
282 255 256 253 236 233 247 249 247 243 254 260 261 217 124 122 125 134 135 135 126 120 128 126 114 104 115 116 112 112 115 129 143 149 150 164 183 182 199 225 233 229 216 228
275 252 249 255 264 260 247 251 253 242 242 249 251 223 184 157 143 150 148 142 140 146 135 119 113 111 107 112 113 108 105 109 135 147 161 162 183 206 215 221 227 228 222 219
271 259 255 263 271 269 267 263 252 248 254 255 247 222 203 177 162 149 152 151 148 147 149 143 136 138 133 119 111 92 93 124 236 193 184 185 204 214 219 223 227 232 229 226
243 269 267 264 260 262 262 263 255 252 255 259 254 257 208 153 152 147 151 163 159 159 167 158 145 141 141 146 156 111 86 190 153 251 236 232 234 240 235 217 220 240 237 230
240 257 267 265 264 264 256 257 248 249 254 255 263 271 169 172 191 173 162 174 171 178 171 160 154 151 147 156 159 188 233 284 246 270 265 245 245 249 259 253 227 232 236 233
246 252 257 263 265 253 257 302 257 235 262 283 276 288 212 215 240 182 159 166 171 162 164 158 155 152 163 153 153 215 230 245 242 246 261 264 252 253 263 266 243 217 219 235
236 240 249 255 255 249 256 286 276 256 275 321 289 274 198 105 198 196 162 160 144 141 139 143 152 165 171 170 172 227 235 254 255 255 261 266 274 263 254 256 257 238 218 219
222 225 243 252 260 262 291 318 297 258 252 334 327 357 120 132 235 241 150 124 129 130 129 151 171 178 181 182 205 243 245 260 277 286 283 289 287 283 264 252 248 249 238 221
222 223 236 250 254 262 323 328 307 247 297 348 337 12 168 237 298 280 141 121 126 133 144 157 169 177 176 181 218 250 261 273 281 282 284 296 297 275 265 248 235 237 246 235
259 242 239 248 255 261 338 322 317 0 6 1 352 353 360 27 52 82 105 109 116 131 143 153 165 173 175 185 215 235 258 276 280 284 286 289 280 269 258 242 235 232 235 229
267 292 275 265 253 345 -0 356 354 345 344 336 321 320 347 328 189 134 110 114 128 140 154 176 181 197 210 210 212 223 260 269 268 277 284 276 275 271 246 252 245 239 230 226
265 317 275 267 255 329 351 355 351 342 330 311 299 282 257 252 210 140 134 124 129 160 186 182 199 228 221 215 217 221 234 255 252 259 276 275 263 253 244 265 257 258 254 245
315 309 286 274 295 318 316 327 328 331 324 318 306 293 253 210 169 150 145 141 136 149 223 211 214 224 234 232 240 235 229 235 242 244 251 261 250 242 247 257 275 254 245 239
309 308 294 296 313 293 288 304 314 313 307 304 304 310 289 196 166 142 137 133 149 194 213 235 234 235 253 263 266 269 248 218 227 238 244 254 255 236 232 232 265 1 260 187
Height
1469 1471 1470 1464 1460 1459 1457 1459 1460 1456 1451 1456 1461 1464 1464 1466 1468 1470 1473 1476 1479 1483 1486 1488 1491 1494 1495 1497 1500 1502 1504 1506 1508 1509 1510 1511 1512 1513 1514 1514 1514 1515 1515 1516
1466 1466 1459 1455 1453 1455 1456 1460 1459 1453 1450 1454 1459 1461 1460 1462 1465 1467 1470 1473 1476 1480 1483 1486 1489 1491 1494 1496 1498 1500 1502 1504 1506 1507 1509 1510 1511 1512 1513 1513 1513 1514 1515 1515
1461 1455 1451 1452 1453 1457 1457 1458 1458 1456 1450 1452 1459 1464 1460 1459 1461 1464 1467 1470 1474 1477 1480 1484 1487 1489 1492 1494 1496 1499 1501 1503 1505 1507 1508 1510 1510 1511 1512 1512 1512 1512 1513 1514
1452 1447 1447 1450 1452 1454 1459 1450 1451 1452 1458 1461 1458 1474 1463 1456 1458 1461 1465 1468 1471 1475 1478 1481 1484 1487 1490 1492 1494 1497 1499 1501 1503 1505 1506 1508 1508 1509 1510 1511 1511 1511 1511 1512
1450 1446 1447 1451 1449 1449 1451 1447 1449 1452 1457 1461 1457 1465 1465 1455 1460 1460 1462 1466 1469 1473 1476 1479 1482 1485 1488 1491 1493 1495 1497 1500 1502 1503 1505 1506 1507 1508 1509 1509 1510 1510 1510 1510
1445 1443 1444 1445 1445 1446 1447 1449 1451 1453 1457 1472 1461 1463 1464 1456 1457 1458 1461 1465 1468 1472 1475 1477 1481 1484 1487 1490 1491 1493 1495 1498 1500 1502 1503 1504 1505 1506 1507 1507 1508 1509 1509 1509
1449 1444 1441 1443 1447 1446 1449 1459 1473 1475 1473 1470 1452 1457 1459 1449 1449 1454 1460 1464 1468 1472 1474 1477 1480 1483 1486 1489 1490 1492 1494 1496 1499 1500 1501 1503 1504 1505 1505 1506 1507 1507 1507 1507
1455 1454 1441 1441 1445 1449 1450 1455 1473 1481 1475 1464 1452 1459 1454 1446 1450 1455 1460 1465 1469 1472 1475 1477 1480 1482 1485 1488 1489 1491 1493 1495 1497 1499 1500 1501 1502 1503 1504 1504 1505 1505 1505 1505
1452 1450 1437 1438 1441 1444 1450 1451 1448 1458 1459 1465 1458 1455 1453 1451 1454 1458 1463 1466 1469 1472 1475 1478 1481 1483 1485 1487 1488 1490 1492 1494 1496 1497 1498 1499 1500 1501 1502 1503 1503 1503 1503 1504
1447 1452 1442 1438 1441 1442 1444 1447 1452 1460 1470 1474 1465 1460 1461 1457 1458 1460 1463 1467 1470 1473 1476 1479 1481 1483 1485 1486 1489 1490 1492 1493 1495 1496 1497 1498 1499 1499 1500 1501 1501 1501 1501 1501
1445 1452 1447 1441 1444 1445 1446 1448 1451 1453 1454 1468 1474 1470 1451 1455 1458 1462 1466 1468 1471 1474 1477 1480 1482 1483 1485 1486 1488 1490 1491 1493 1494 1495 1496 1497 1497 1497 1498 1498 1499 1499 1499 1499
1447 1451 1453 1445 1436 1435 1439 1443 1448 1462 1462 1457 1464 1470 1452 1454 1459 1463 1467 1470 1472 1475 1478 1480 1482 1483 1485 1486 1487 1489 1490 1491 1493 1494 1495 1495 1496 1496 1496 1496 1497 1497 1497 1497
1449 1456 1463 1456 1448 1443 1443 1440 1442 1447 1454 1459 1465 1470 1456 1458 1462 1465 1468 1470 1473 1476 1478 1480 1482 1484 1485 1486 1487 1488 1490 1491 1492 1493 1493 1494 1494 1494 1494 1495 1495 1495 1495 1494
1452 1455 1462 1465 1455 1448 1448 1445 1442 1446 1456 1460 1460 1462 1460 1460 1463 1466 1468 1470 1473 1476 1478 1480 1483 1485 1485 1486 1486 1487 1488 1490 1491 1491 1492 1492 1492 1492 1493 1493 1493 1493 1493 1493
1452 1455 1454 1451 1447 1445 1446 1445 1443 1445 1448 1453 1454 1455 1459 1459 1462 1465 1468 1471 1473 1476 1478 1480 1481 1483 1484 1485 1485 1486 1487 1488 1489 1490 1490 1490 1490 1491 1491 1491 1491 1491 1491 1491
1453 1457 1454 1452 1447 1444 1445 1443 1442 1444 1445 1448 1450 1455 1455 1459 1462 1464 1467 1470 1472 1475 1477 1479 1480 1482 1483 1484 1484 1485 1486 1487 1488 1488 1489 1489 1489 1489 1489 1489 1489 1489 1489 1489
1452 1458 1459 1456 1445 1444 1449 1444 1443 1444 1445 1448 1454 1456 1456 1459 1461 1464 1466 1469 1471 1473 1475 1477 1479 1481 1481 1482 1483 1484 1485 1485 1486 1487 1487 1487 1487 1487 1487 1487 1487 1487 1487 1487
1453 1457 1458 1457 1453 1462 1450 1439 1439 1444 1446 1448 1452 1454 1456 1459 1461 1463 1465 1468 1469 1472 1474 1476 1477 1479 1480 1481 1482 1483 1484 1484 1485 1485 1485 1485 1485 1485 1485 1485 1485 1485 1484 1484
1449 1453 1457 1458 1458 1454 1448 1444 1444 1447 1451 1451 1452 1454 1457 1459 1462 1463 1464 1466 1468 1471 1473 1474 1476 1477 1479 1480 1481 1482 1482 1483 1483 1484 1483 1483 1483 1483 1483 1483 1483 1483 1483 1482
1445 1449 1456 1456 1461 1462 1455 1446 1444 1447 1456 1454 1454 1455 1458 1460 1463 1463 1463 1465 1468 1470 1472 1473 1475 1476 1478 1478 1479 1480 1481 1481 1482 1482 1481 1481 1481 1480 1480 1480 1480 1481 1481 1480
1451 1453 1456 1458 1461 1461 1454 1450 1447 1458 1461 1457 1456 1457 1459 1460 1462 1463 1463 1465 1467 1469 1471 1472 1474 1475 1476 1477 1477 1478 1479 1479 1480 1479 1479 1478 1478 1478 1478 1478 1478 1478 1478 1478
1452 1455 1457 1459 1463 1466 1456 1453 1456 1459 1457 1458 1458 1459 1460 1461 1461 1462 1463 1465 1467 1468 1470 1471 1472 1473 1474 1476 1476 1477 1477 1477 1477 1477 1477 1476 1476 1476 1476 1475 1476 1476 1476 1476
1453 1455 1457 1460 1463 1460 1458 1458 1459 1458 1459 1459 1459 1459 1461 1461 1462 1463 1464 1465 1466 1468 1469 1470 1471 1471 1473 1474 1475 1474 1474 1475 1475 1474 1474 1474 1474 1474 1473 1473 1473 1474 1474 1474
1453 1454 1456 1458 1459 1459 1459 1459 1460 1460 1459 1459 1458 1458 1459 1460 1460 1462 1463 1464 1465 1467 1468 1468 1469 1470 1470 1472 1472 1472 1472 1472 1472 1472 1472 1471 1471 1471 1471 1471 1472 1472 1471 1472
1458 1458 1458 1459 1460 1460 1460 1460 1460 1460 1460 1459 1458 1458 1458 1458 1460 1461 1462 1463 1464 1465 1466 1467 1467 1468 1469 1469 1469 1469 1469 1468 1468 1468 1469 1469 1469 1469 1469 1469 1469 1469 1469 1469
1461 1461 1462 1463 1462 1462 1461 1460 1460 1460 1459 1459 1458 1458 1458 1459 1459 1460 1461 1462 1463 1464 1465 1465 1466 1466 1466 1466 1466 1466 1466 1465 1466 1466 1466 1467 1467 1467 1467 1467 1467 1466 1467 1466